EDT,Max TemperatureF,Mean TemperatureF,Min TemperatureF,Max Dew PointF,MeanDew PointF,Min DewpointF,Max Humidity, Mean Humidity, Min Humidity, Max Sea Level PressureIn, Mean Sea Level PressureIn, Min Sea Level PressureIn, Max VisibilityMiles, Mean VisibilityMiles, Min VisibilityMiles, Max Wind SpeedMPH, Mean Wind SpeedMPH, Max Gust SpeedMPH,PrecipitationIn, CloudCover, Events, WindDirDegrees
2012-9-1,84,74,64,66,62,56,90,67,43,30.08,30.01,29.90,10,10,9,14,5,16,0.00,3,,353
2012-9-2,81,68,55,58,54,51,93,65,36,30.13,30.08,30.05,10,10,10,9,2,13,0.00,2,,42
2012-9-3,80,68,55,58,56,53,93,68,42,30.18,30.14,30.11,10,10,10,17,7,23,0.00,4,Fog,178
2012-9-4,79,74,68,70,64,56,82,73,63,30.10,29.96,29.76,10,10,9,21,9,31,0.08,8,Rain,166
2012-9-5,77,69,61,72,66,61,100,82,64,29.86,29.78,29.70,10,10,3,20,6,24,0.05,6,Fog-Rain,256
2012-9-6,81,70,58,67,63,58,100,79,58,29.92,29.87,29.82,10,5,0,15,4,20,0.00,6,Fog,166
2012-9-7,86,76,65,67,64,58,93,68,43,29.95,29.89,29.81,10,10,10,9,2,13,0.00,5,Fog,214
2012-9-8,83,72,60,70,64,56,93,79,65,29.82,29.68,29.51,10,8,1,33,12,40,0.51,6,Fog-Rain-Thunderstorm,185
2012-9-9,74,63,52,55,52,48,93,71,49,29.92,29.85,29.78,10,10,10,15,5,18,0.00,5,Fog,275
2012-9-10,67,58,49,49,45,40,89,66,43,30.15,30.03,29.94,10,10,10,20,7,30,0.00,3,,329
2012-9-11,72,57,41,48,43,39,89,62,34,30.30,30.24,30.15,10,10,10,9,1,13,0.00,2,Fog,333
2012-9-12,79,63,46,54,50,45,93,66,39,30.38,30.32,30.28,10,10,5,13,5,16,0.00,1,Fog,175
2012-9-13,81,68,54,58,55,51,93,66,39,30.37,30.31,30.24,10,10,10,12,5,14,0.00,0,Fog,171
2012-9-14,81,70,58,60,57,54,97,70,42,30.26,30.16,30.04,10,10,6,17,7,25,0.00,4,Fog,185
2012-9-15,70,61,52,56,49,45,93,67,40,30.15,30.11,30.08,10,9,5,22,10,29,0.13,4,Rain,291
2012-9-16,70,58,46,49,45,38,93,62,31,30.14,30.09,30.04,10,10,10,17,4,20,0.00,2,Fog,278
2012-9-17,77,62,46,54,50,44,93,67,40,30.12,30.05,30.00,10,10,10,13,6,18,0.00,2,Fog,171
2012-9-18,71,66,60,68,63,52,97,82,67,29.99,29.70,29.53,10,5,0,30,13,40,3.19,8,Fog-Rain,178
2012-9-19,66,56,45,57,46,40,86,63,40,30.22,30.01,29.70,10,9,3,22,8,30,0.08,5,Rain,291
2012-9-20,68,55,41,52,45,41,100,74,48,30.27,30.21,30.11,10,6,0,17,5,21,0.00,5,Fog,162
2012-9-21,71,61,51,56,53,50,89,73,57,30.12,30.06,30.00,10,10,10,18,8,26,0.00,2,,166
2012-9-22,72,64,56,61,56,51,97,82,66,29.99,29.87,29.77,10,9,2,24,9,33,0.56,5,Rain,181
2012-9-23,65,55,45,56,44,37,100,69,37,30.14,30.03,29.86,10,10,10,18,7,24,0.00,3,,285
2012-9-24,64,52,39,44,41,36,96,66,36,30.19,30.12,30.08,10,10,10,14,3,16,0.01,3,,237
2012-9-25,71,58,45,47,43,41,82,60,37,30.14,30.10,30.07,10,10,10,20,9,25,0.00,2,,172
2012-9-26,68,63,58,61,57,48,93,79,64,30.07,30.03,30.00,10,9,2,14,7,20,0.18,8,Rain,177
2012-9-27,67,58,49,61,50,44,100,73,45,30.24,30.15,30.04,10,8,0,14,6,18,0.00,5,Fog,3
2012-9-28,54,51,48,52,49,44,96,88,80,30.23,30.12,30.01,10,6,1,8,4,12,0.79,8,Fog-Rain,10
2012-9-29,60,57,53,54,52,51,93,83,72,30.01,29.95,29.90,10,6,1,10,5,13,0.03,8,Rain,3
2012-9-30,62,57,52,54,52,49,93,86,78,29.91,29.81,29.75,10,8,2,12,5,14,0.11,8,Rain-Thunderstorm,327